Dewpoint
69 69 69 69 69 69 69 69 69 68 67 67 68 68 67 68 67 67 69 69 68 68 68 69 70 69 69 69 68 69 72 72 72 74 74 74 74 74 73 75 74 74 75 74 74 74 73 73 74 73 72 71 70 69 68 68 71 72 70 71 71 71 69 69 67 67 70 72 69 68 70 70 72 70 69 68 70 70 74 74 72 71 71 71 71
68 69 69 68 68 68 68 69 69 68 67 66 67 67 67 67 67 68 67 67 68 68 68 67 68 70 68 69 68 68 70 71 72 72 73 74 74 74 73 73 74 75 75 74 75 74 73 72 73 74 74 71 70 70 69 69 69 68 70 69 69 69 70 68 67 69 69 73 74 74 71 70 70 71 71 69 70 73 73 74 71 71 72 72 72
68 68 68 68 68 68 68 69 68 68 67 66 66 65 66 67 67 67 67 67 68 67 68 68 68 68 69 69 70 69 70 70 71 71 73 73 73 72 72 72 72 72 74 74 74 73 72 72 71 70 70 70 72 71 69 68 68 67 68 68 70 71 72 72 73 72 71 72 75 73 73 76 74 73 72 73 76 74 72 72 72 71 73 72 72
67 67 67 67 67 67 67 68 68 67 66 66 65 65 65 66 68 67 67 66 66 68 68 68 70 71 70 71 71 71 72 72 71 72 71 72 73 72 71 71 72 72 72 72 72 72 71 71 72 74 74 73 73 72 72 72 71 71 71 71 70 71 75 75 74 74 73 73 74 74 74 74 75 76 75 74 73 72 72 71 70 70 72 73 72
67 67 67 66 67 66 66 66 67 67 66 65 65 64 64 64 65 66 66 66 66 68 70 70 71 71 70 72 73 72 72 72 72 72 72 73 72 72 72 72 72 72 72 72 75 72 72 73 72 71 72 71 73 72 72 73 73 72 72 74 73 74 75 74 73 74 73 72 74 75 74 73 74 75 76 73 73 72 73 72 71 69 71 72 71
70 69 66 66 66 65 65 65 65 66 66 65 65 64 64 63 62 65 65 65 66 67 69 71 71 73 74 74 74 73 73 73 72 71 71 72 72 71 71 72 72 73 73 73 73 72 73 73 74 73 74 73 73 73 73 73 74 73 73 73 74 74 73 74 74 74 73 73 72 72 73 73 72 73 75 75 73 73 72 72 71 71 71 71 71
69 69 70 66 68 68 68 67 65 66 67 66 66 67 66 67 68 68 71 69 68 69 69 69 71 71 74 74 74 73 73 73 73 73 73 73 73 71 72 72 72 72 73 73 73 72 73 74 72 74 73 72 72 72 71 71 72 72 75 74 74 74 74 74 74 74 73 73 72 72 71 72 72 70 73 75 75 73 72 70 68 73 72 71 71
71 71 70 69 70 71 69 72 71 71 71 71 70 68 67 68 70 71 70 70 70 71 70 70 71 72 72 73 73 74 73 74 74 73 74 74 73 71 72 73 72 73 73 73 73 73 72 73 73 73 72 72 73 73 72 73 73 73 74 74 74 73 73 73 72 73 72 72 72 72 71 71 72 73 73 73 72 71 72 70 68 69 72 73 71
71 70 71 72 72 70 69 70 71 72 72 74 74 71 70 70 73 72 73 72 73 71 71 71 71 73 73 73 73 74 74 73 72 71 72 73 74 75 74 73 73 74 74 73 73 73 72 72 72 74 74 74 75 74 75 74 74 72 74 75 74 74 74 73 74 72 73 72 71 72 72 71 71 71 71 71 71 70 71 71 69 72 74 74 71
71 71 70 73 72 70 70 71 71 72 72 72 74 75 75 76 76 76 75 74 74 75 74 73 72 72 72 73 72 74 75 75 74 75 76 77 76 75 75 75 73 73 74 73 73 73 73 74 75 75 75 76 76 75 75 77 77 77 76 75 75 74 73 72 72 73 73 72 72 72 71 71 71 72 72 72 72 72 72 71 69 72 72 72 73
73 73 72 71 72 72 70 70 70 72 72 72 73 75 76 76 75 74 74 74 74 74 73 72 72 71 71 70 71 72 73 74 71 68 70 73 76 75 74 75 75 75 75 74 74 74 73 73 73 73 74 76 74 75 75 76 77 77 77 77 78 75 74 73 73 73 73 72 72 72 72 71 72 72 71 70 70 70 70 71 71 70 70 68 67
71 71 70 71 71 72 71 71 70 70 72 72 73 75 76 75 75 74 74 74 73 73 72 73 71 70 71 73 73 73 72 69 65 67 68 69 72 74 75 76 75 73 74 73 73 72 71 72 72 73 74 74 74 74 75 76 76 76 76 76 76 76 77 75 74 72 72 72 71 71 71 71 72 72 72 70 69 70 70 70 69 69 68 68 69
70 70 71 71 71 71 71 69 68 68 68 71 74 74 75 75 74 74 73 74 74 73 72 73 71 70 71 72 73 71 67 65 64 65 65 66 69 72 73 74 74 74 73 72 71 71 71 71 72 72 73 74 75 74 74 75 76 76 75 75 76 76 72 72 74 75 73 73 72 71 72 72 72 72 72 71 75 71 71 69 70 69 68 68 69
71 70 71 71 71 71 71 70 69 68 69 71 74 74 74 74 74 73 73 73 72 73 73 73 72 71 71 72 71 66 64 64 62 63 63 64 66 70 72 73 74 74 72 71 71 71 71 71 71 71 72 72 72 73 74 75 74 74 73 73 74 76 76 73 72 73 75 74 73 72 73 73 72 73 75 74 72 72 72 70 70 70 70 69 70
72 70 70 70 71 72 73 71 71 71 72 72 72 72 73 72 73 73 72 72 72 72 73 73 73 73 72 72 67 62 61 60 60 60 61 62 64 69 71 73 72 72 72 72 72 72 72 72 71 70 71 71 71 72 74 75 74 74 73 73 73 73 73 74 76 75 74 75 74 73 73 73 72 73 75 74 73 73 74 74 72 70 71 72 72
70 70 70 71 71 71 72 72 71 71 72 72 72 71 71 70 70 71 72 72 72 72 72 73 73 72 72 69 63 60 56 56 57 57 58 59 63 69 71 73 72 72 72 72 72 72 72 71 70 70 70 71 70 69 71 73 73 73 72 72 72 72 73 75 70 71 74 72 71 71 72 73 69 71 70 71 73 73 73 73 74 73 72 71 71
68 68 68 69 70 70 70 70 70 70 70 71 70 71 71 70 70 71 71 72 72 72 71 72 72 72 72 66 61 56 54 55 54 55 56 57 65 70 73 73 72 72 72 72 72 72 72 70 69 69 71 66 64 60 65 73 72 73 72 72 72 72 72 73 71 70 69 67 65 66 66 65 65 65 64 66 70 71 70 69 70 71 69 68 70
67 68 68 68 68 69 70 70 70 69 70 70 70 70 70 70 70 71 70 71 71 72 72 72 72 71 68 62 57 54 54 55 54 54 54 56 64 69 73 73 72 71 72 72 73 72 72 74 72 65 63 62 59 59 64 69 69 70 72 72 72 71 71 72 72 72 70 69 68 67 66 67 67 67 67 65 66 69 70 69 70 71 68 68 67
66 67 67 67 68 68 69 69 69 69 68 68 69 69 69 69 70 70 70 70 71 71 72 71 68 66 64 62 62 57 57 57 53 53 53 55 63 68 71 71 73 72 71 71 72 71 69 70 70 67 63 61 57 58 61 67 65 66 67 68 70 70 66 65 68 70 71 71 71 72 72 72 73 72 73 69 70 73 71 70 70 70 69 67 67
66 66 66 67 67 68 68 68 68 68 68 67 68 68 68 68 67 68 69 70 71 70 67 65 64 64 63 61 60 59 58 56 55 52 52 54 57 62 60 62 64 68 72 72 71 71 68 65 64 59 57 56 55 54 56 58 63 63 66 67 66 66 64 63 67 69 70 71 71 71 71 71 71 72 72 71 71 73 71 70 70 70 69 68 67
65 66 66 67 67 66 67 66 66 66 67 67 67 66 66 65 65 64 64 63 64 63 63 62 61 60 60 61 61 61 60 57 56 52 51 52 55 59 59 59 59 62 65 71 71 70 67 64 63 59 56 55 54 53 53 56 62 66 62 62 62 63 62 63 65 68 68 69 71 71 70 70 70 71 71 70 71 71 72 71 71 71 70 69 68
64 64 64 64 65 66 66 66 66 66 66 65 65 65 65 64 64 63 62 61 60 60 60 61 59 60 60 60 60 59 60 59 58 53 51 51 52 56 60 61 62 63 68 67 67 66 66 65 63 59 55 55 53 52 52 55 61 64 62 56 55 57 61 66 66 67 68 69 69 69 69 68 68 69 68 69 70 70 70 69 68 69 69 69 69
62 62 62 62 63 64 64 65 65 65 65 64 64 64 64 63 63 63 61 60 60 59 59 59 58 58 57 58 58 58 58 59 57 57 53 51 51 53 55 60 60 64 62 62 62 63 65 65 64 61 53 50 50 51 52 56 63 59 53 54 56 59 66 65 67 67 68 68 68 68 68 68 67 67 68 68 69 70 69 69 68 69 69 70 70
61 61 61 61 61 62 62 63 63 64 64 64 63 63 62 62 62 62 61 61 60 59 59 59 58 57 56 57 57 58 58 58 58 57 56 54 53 53 54 55 58 63 64 64 63 63 62 61 59 53 51 49 50 52 54 59 60 54 54 57 62 66 65 64 64 65 66 66 66 67 67 68 68 68 69 69 69 68 68 68 68 68 67 68 68
60 60 60 60 59 58 58 57 57 58 58 59 59 59 60 61 61 61 61 60 60 59 60 60 59 58 57 56 56 57 58 58 58 59 58 58 55 54 55 56 58 60 64 63 64 62 57 53 53 54 55 54 55 57 60 63 60 58 58 62 66 64 64 64 64 64 65 65 65 66 66 66 66 67 67 67 68 67 67 66 67 67 66 63 62
59 58 58 58 57 56 54 51 51 51 53 54 55 53 52 53 54 53 57 61 61 60 60 60 60 59 57 56 55 54 55 56 57 58 59 58 58 57 57 58 63 64 64 62 62 60 59 57 58 59 61 63 65 66 67 66 64 64 64 65 64 64 64 64 64 64 64 65 65 65 65 66 66 66 67 67 66 66 66 66 65 65 64 63 62
59 58 58 57 55 53 50 47 47 48 49 49 51 53 51 48 49 52 51 50 55 61 62 61 60 59 59 59 58 58 56 56 56 56 56 56 56 57 58 59 61 62 62 60 60 61 64 66 63 60 60 62 64 65 65 66 66 64 62 62 64 64 65 64 64 64 64 64 64 64 64 65 65 65 64 64 64 65 67 66 65 65 64 63 62
56 57 57 55 53 51 51 53 50 49 51 50 49 50 52 52 50 50 50 50 51 52 53 54 54 55 55 57 58 57 56 53 52 51 53 53 53 54 56 57 56 56 58 56 55 59 62 64 64 66 65 65 65 65 64 62 62 63 61 60 60 61 63 64 64 63 63 63 63 64 64 63 62 62 62 62 61 62 64 64 64 64 65 63 61
58 55 55 55 55 54 51 50 50 50 51 52 52 51 51 53 53 52 52 50 50 50 51 52 52 49 50 51 52 52 53 52 52 48 50 46 49 51 53 53 52 53 57 52 54 58 60 63 64 65 64 65 65 63 61 60 59 59 59 58 58 58 58 59 60 60 61 61 61 61 62 62 62 62 61 59 60 60 61 62 62 61 61 61 60
54 53 53 50 51 52 53 53 52 51 50 51 52 52 51 46 48 53 52 51 48 45 49 52 53 54 52 52 52 51 52 52 47 43 41 42 42 43 44 42 42 47 50 49 52 56 59 62 63 65 64 64 61 59 58 59 58 57 57 58 57 57 56 57 57 58 59 59 59 59 59 59 59 60 60 60 59 59 59 60 60 61 61 60 59
57 57 57 54 54 53 53 53 55 53 51 51 52 53 51 52 43 44 50 50 45 41 42 44 47 51 57 52 51 49 48 45 42 41 41 42 41 42 42 42 42 42 43 50 57 58 57 57 57 57 57 57 56 56 56 56 58 57 56 56 56 56 56 56 55 56 56 57 58 58 57 57 57 58 58 59 59 59 59 60 60 59 59 60 60
58 58 59 60 59 57 56 57 58 58 56 55 54 53 51 51 51 47 42 45 45 42 41 41 42 43 46 53 58 53 49 44 41 42 42 43 42 42 42 45 43 43 45 51 57 55 55 55 55 55 55 55 55 55 53 53 53 53 54 54 54 55 54 54 56 56 54 54 54 55 57 57 58 58 58 59 59 59 60 60 60 60 59 60 60
57 58 59 59 62 63 61 60 60 59 59 57 56 55 53 52 50 49 51 46 42 41 41 41 40 41 41 41 43 46 46 44 43 43 42 42 42 42 46 47 45 45 52 55 55 55 56 56 55 55 55 54 54 53 54 53 52 51 51 52 52 53 53 54 54 53 56 55 54 54 54 54 56 56 56 56 56 57 57 58 60 60 59 55 55
58 59 60 62 61 60 60 60 60 59 60 61 60 57 57 54 51 52 51 53 53 50 45 42 41 43 41 41 41 42 41 43 43 42 42 42 42 43 49 53 47 48 52 57 56 55 55 55 55 55 55 56 55 54 54 54 53 52 52 52 52 52 52 53 53 53 53 52 51 52 52 51 51 50 50 51 52 54 54 55 55 53 53 52 50
57 60 61 63 58 58 58 58 59 59 58 60 59 57 59 60 57 56 55 57 56 54 51 54 47 39 49 49 43 40 41 42 42 41 42 41 42 43 53 55 54 54 54 55 55 54 54 53 54 54 53 53 56 56 54 54 54 54 53 53 53 52 51 51 51 52 51 50 50 49 49 49 48 49 50 49 49 48 49 50 50 51 52 51 50
56 55 55 57 57 59 60 59 58 58 56 55 58 60 58 61 62 60 59 60 58 56 56 55 53 50 44 43 35 37 41 41 42 43 42 42 42 51 58 56 55 55 55 54 54 54 54 53 53 52 52 52 52 52 55 55 54 54 52 52 52 52 50 49 50 49 50 48 48 48 46 45 46 47 47 47 47 47 47 48 49 51 51 50 50
55 53 53 55 57 57 58 59 61 60 59 59 60 58 61 60 63 60 63 59 58 57 54 53 54 56 56 58 54 46 44 44 46 46 46 46 48 55 54 54 53 53 53 53 53 52 51 50 51 50 51 50 50 50 51 50 51 54 57 55 52 50 50 51 50 52 48 48 47 47 46 44 45 46 47 45 46 46 47 49 49 51 51 52 53
54 52 51 54 56 57 55 55 61 59 58 59 59 59 61 58 55 65 61 60 60 57 53 53 57 55 53 54 58 56 56 53 49 49 49 51 53 56 55 55 54 53 52 52 51 51 50 50 50 50 50 50 49 47 48 50 50 48 48 50 53 53 53 50 50 46 47 45 45 46 47 45 44 45 48 45 45 45 46 48 47 47 47 51 50
53 54 56 58 57 52 51 53 55 55 55 57 56 61 59 56 55 56 58 58 59 59 57 57 57 57 57 56 55 59 56 55 54 55 57 57 57 54 54 53 52 52 52 52 52 51 50 49 50 50 50 49 48 46 46 46 45 45 45 46 45 44 44 43 43 43 44 43 43 43 43 44 44 44 47 45 45 45 45 45 47 47 45 45 46
53 53 56 57 52 54 53 55 54 54 57 56 53 56 56 55 56 55 54 55 55 55 55 57 57 57 57 55 57 56 55 57 57 58 59 55 55 54 53 52 52 52 51 51 50 50 49 48 49 48 48 49 48 47 46 45 45 45 44 44 43 42 42 42 41 42 42 43 42 42 42 42 43 44 44 44 45 43 43 44 45 44 45 46 45
52 52 59 56 53 53 56 56 54 54 55 55 53 53 54 55 56 57 53 54 55 55 57 58 58 58 57 54 52 54 56 56 55 59 57 55 54 52 51 52 53 52 52 51 50 50 49 49 49 48 48 47 47 46 45 45 44 44 43 44 42 43 41 41 41 41 41 42 42 41 41 42 43 42 44 45 46 43 44 45 42 42 44 45 44
52 53 53 54 54 56 53 56 54 55 55 54 51 53 55 54 53 52 52 51 53 53 55 56 56 56 50 45 44 47 53 55 53 57 55 55 53 53 52 50 50 49 49 48 49 49 49 48 48 48 46 46 47 45 44 43 43 42 42 41 41 41 41 41 42 41 41 40 41 42 41 43 44 44 44 47 41 41 43 45 42 43 43 43 45
55 54 55 55 54 53 54 54 55 52 52 50 51 56 56 53 51 51 49 50 51 53 53 56 56 55 51 48 48 51 52 54 61 55 56 54 53 53 51 50 51 51 52 52 52 50 48 46 46 46 46 46 45 44 42 42 42 41 41 41 40 40 41 42 41 41 41 41 41 42 41 42 43 41 43 45 41 42 41 44 43 42 42 42 43
53 55 53 53 55 53 55 52 52 52 51 53 56 54 54 53 52 53 51 52 51 50 50 52 56 54 52 50 51 53 54 54 53 54 54 54 51 50 49 49 50 49 50 49 47 47 47 47 46 46 45 44 43 43 42 41 41 40 39 39 42 42 41 42 41 40 41 41 41 41 41 42 43 40 42 44 42 43 41 42 42 42 41 41 42
53 50 51 50 52 50 51 53 48 50 55 54 49 49 52 48 50 51 49 50 51 50 49 49 51 53 54 54 55 55 55 54 54 55 53 52 51 51 51 50 50 50 48 48 48 48 47 46 45 45 45 44 43 42 41 41 41 40 39 38 38 39 40 41 41 41 41 42 41 41 42 41 40 39 41 41 43 42 42 42 41 43 40 41 41
52 51 51 49 49 52 52 50 53 48 48 49 49 46 47 47 48 49 51 51 51 50 50 50 51 52 54 55 55 55 55 54 53 54 54 54 53 53 53 52 51 50 48 47 47 46 45 45 45 45 44 43 42 41 41 41 40 40 39 39 39 40 41 42 41 40 40 41 41 41 42 43 41 42 43 42 41 41 42 42 41 41 41 41 41
52 51 50 50 49 50 50 50 48 49 49 48 47 47 48 48 49 50 52 52 51 51 50 51 52 53 53 54 55 55 55 55 55 55 55 55 55 54 53 52 49 48 47 48 48 47 47 46 46 45 44 42 41 40 39 39 39 39 41 39 39 40 41 41 39 39 39 41 42 41 41 43 42 41 43 43 42 42 42 42 42 41 41 42 41
47 49 47 49 48 48 48 47 47 51 48 48 49 49 49 49 49 49 49 49 49 50 50 50 50 51 52 53 54 54 54 53 53 53 52 51 51 51 50 50 50 48 48 46 45 45 45 45 46 46 44 42 41 40 40 39 39 39 39 40 40 40 41 40 39 38 39 40 40 41 41 41 40 41 41 41 41 42 41 41 42 42 42 43 43
45 48 47 47 47 48 48 47 48 46 46 46 47 48 49 48 48 48 48 49 49 49 49 49 49 49 50 50 51 54 53 53 52 52 53 52 51 50 51 49 48 46 46 45 45 45 45 45 45 43 41 40 40 40 40 40 40 40 40 39 40 41 39 39 39 39 38 39 39 40 40 41 41 41 42 41 40 40 41 41 42 42 41 42 42
47 50 49 48 48 47 47 47 46 45 46 46 46 46 47 47 46 47 47 47 47 48 48 49 49 48 48 48 49 49 50 51 51 49 49 49 48 48 47 47 46 46 46 46 46 46 47 46 44 43 41 41 40 40 39 39 39 39 39 38 39 38 38 40 40 40 38 37 38 39 40 42 42 41 42 41 41 40 40 43 43 41 41 40 41
49 47 47 47 46 47 46 45 45 45 45 45 45 45 46 45 46 46 47 46 46 46 47 47 47 48 48 47 48 48 48 48 47 47 47 48 48 48 47 47 47 47 46 45 44 44 44 44 44 43 42 42 41 40 39 39 39 39 39 38 37 35 34 35 37 35 36 37 39 40 41 43 43 42 42 41 40 40 43 40 42 40 40 40 40